Regional Weather Roundup
Issued by NWS Newport/Morehead, NC

Current Version | Previous Version | Graphics & Text | Print | Product List | Glossary Off
Versions: 1 2 3 4 5 6 7 8 9 10 11 12 13 14 15 16 17 18 19 20 21 22 23 24 25 26 27 28 29 30 31 32 33 34 35 36 37 38 39 40 41 42 43 44 45 46 47 48 49 50
000 ASUS42 KMHX 271422 RWRMHX WEATHER ROUNDUP FOR EASTERN NORTH CAROLINA NATIONAL WEATHER SERVICE NEWPORT/MOREHEAD CITY NC 900 AM EST TUE JAN 27 2015 NOTE: "FAIR" INDICATES FEW OR NO CLOUDS BELOW 12,000 FEET WITH NO SIGNIFICANT WEATHER AND/OR OBSTRUCTIONS TO VISIBILITY NCZ015>017-031-032-045>047-102-103-271500- NORTH COAST CITY SKY/WX TMP DP RH WIND PRES REMARKS EDENTON LGT SNOW 32 30 92 N10 29.78R ELIZABETH CITY LGT SNOW 30 28 93 NW16G22 29.77R FOG WCI 19 KITTY HAWK CLOUDY 32 32 99 NW10 29.73R FOG MANTEO LGT RAIN 32 30 93 NW10G17 29.74S $$ NCZ045>047-081-094-103-104-271500- CENTRAL COAST CITY SKY/WX TMP DP RH WIND PRES REMARKS FRISCO CLOUDY 34 31 88 N8G21 29.73R SWANQUARTER NOT AVBL $$ NCZ095-097-098-100-101-271500- SOUTHERN COAST CITY SKY/WX TMP DP RH WIND PRES REMARKS BEAUFORT CLOUDY 37 31 78 N18 29.76R CEDAR ISLAND NOT AVBL JACKSONVILLE CLOUDY 39 30 70 NW17G23 29.79R PINEY ISLAND N/A N/A N/A N/A MISG 29.75R WILMINGTON CLOUDY 38 36 92 NW13 29.80R $$ NCZ011>013-027>030-043-044-078>080-089-090>093-098-271500- COASTAL PLAIN CITY SKY/WX TMP DP RH WIND PRES REMARKS AHOSKIE LGT SNOW 30 27 88 N13 29.81S WCI 20 CLINTON CLOUDY 37 32 82 N6 29.82R ELIZABETHTOWN CLOUDY 38 27 64 NW6 29.82R GOLDSBORO MIX PCPN 36 36 100 NW6 29.80R GREENVILLE CLOUDY 34 32 93 N12 29.84R HAVELOCK CLOUDY 36 28 73 N16 29.78R KENANSVILLE CLOUDY 35 33 94 NW9 29.82R KINSTON CLOUDY 36 30 80 N10 29.81R NEW BERN CLOUDY 37 27 67 N9G18 29.79R RICHLANDS CLOUDY 37 27 65 NW8G20 29.80R ROCKY MOUNT CLOUDY 34 30 85 N9 29.82R WASHINGTON CLOUDY 32 28 86 N12 29.80R WHITEVILLE CLOUDY 39 28 63 NW3 29.82R $$ AMZ130-135-150-152-154-156-158-170-250-252-270-ANZ085-086-088-633-658-670-271500- MARINE OBSERVATIONS STATION/POSITION TIME TEMP WIND PRES WAVE SWELL AIR SEA DIR/SP/G HT/PER HT/PER (UTC) (F) (DEG/KT/KT) (MB) (FT/S) (FT/S) CHESAPEAKE LIGHT 1400 32 350/ 27/ 28 1007.0 64 E VA BEACH 1400 37 51 340/ 21/ 27 1004.4 12/12 10/12 DUCK 1400 33 43 330/ 20/ 23 1006.0 2 E DUCK 1400 44 N/A 9/11 5/11 10 NE DUCK 1400 45 N/A 11/11 7/11 OREGON INLET 1400 33 45 320/ 15/ 19 1006.8 13E OREGON INLT 1400 47 N/A 11/12 7/12 HATTERAS CG 1400 36 49 340/ 18/ 23 1007.1 DIAMOND BUOY 1400 40 69 330/ 21/ 25 1005.3 7/10 5/10 17 S OCRACOKE NOT AVBL CAPE LOOKOUT 1400 38 340/ 16/ 20 1007.2 BEAUFORT LAB 1400 37 49 350/ 13/ 19 1006.6 27 SE WRIGHTSVLE NOT AVBL 5 SE WRIGHTSVLE 1400 41 53 330/ 16/ 19 1008.6 225 S CAPE HAT 1338 56 71 310/ 19/ 29 1005.0 13/10 7/10 41 SE CHARLESTON 1400 44 67 310/ 19/ 27 1009.9 6/ 7 $$

USA.gov is the U.S. government's official web portal to all federal, state and local government web resources and services.